Wetterdaten: Dienstag, 09.06.2015
Datum Zeit Temp. A. Feuchte A. Luftdruck Regen Wind Richtung Richtung Sonnenschein ET UV Solar Taupunkt Windchill Windben Empfang
09.06.2015 00:00 14,2 C 98 % 1017,2 hPa 0,0 l/m 0,0 km/h (0 Bft) S-SW 210 0 min 0,000 mm 0,0 UV-I 0 W/m 13,9 C 14,2 C 0,0 km/h (0 Bft) 0,00 %
09.06.2015 01:00 14,3 C 99 % 1018,0 hPa 0,0 l/m 0,0 km/h (0 Bft) O-SO 120 0 min 0,000 mm 0,0 UV-I 0 W/m 14,1 C 14,3 C 0,0 km/h (0 Bft) 0,00 %
09.06.2015 02:00 14,4 C 99 % 1017,5 hPa 0,0 l/m 0,3 km/h (0 Bft) SW 230 0 min 0,000 mm 0,0 UV-I 0 W/m 14,2 C 14,4 C 4,0 km/h (1 Bft) 0,00 %
09.06.2015 03:00 14,3 C 99 % 1017,2 hPa 0,0 l/m 0,0 km/h (0 Bft) S 180 0 min 0,000 mm 0,0 UV-I 0 W/m 14,1 C 14,3 C 0,0 km/h (0 Bft) 0,00 %
09.06.2015 04:00 14,4 C 99 % 1016,8 hPa 0,0 l/m 0,0 km/h (0 Bft) SW 230 0 min 0,000 mm 0,0 UV-I 0 W/m 14,2 C 14,4 C 0,0 km/h (0 Bft) 0,00 %
09.06.2015 05:00 14,4 C 99 % 1016,8 hPa 0,9 l/m 0,0 km/h (0 Bft) W-SW 240 0 min 0,000 mm 0,0 UV-I 0 W/m 14,2 C 14,4 C 0,0 km/h (0 Bft) 0,00 %
09.06.2015 06:00 14,2 C 99 % 1017,6 hPa 0,0 l/m 0,0 km/h (0 Bft) SO 130 0 min 0,000 mm 0,0 UV-I 0 W/m 14,0 C 14,2 C 0,0 km/h (0 Bft) 0,00 %
09.06.2015 07:00 13,6 C 99 % 1018,1 hPa 0,0 l/m 0,0 km/h (0 Bft) S-SW 210 0 min 0,000 mm 1,0 UV-I 50 W/m 13,4 C 13,6 C 0,0 km/h (0 Bft) 0,00 %
09.06.2015 08:00 14,0 C 99 % 1018,0 hPa 0,0 l/m 0,0 km/h (0 Bft) SO 130 0 min 0,000 mm 1,0 UV-I 166 W/m 13,8 C 14,0 C 0,0 km/h (0 Bft) 0,00 %
09.06.2015 09:00 15,4 C 91 % 1018,1 hPa 0,0 l/m 0,0 km/h (0 Bft) O-SO 120 60 min 0,000 mm 2,0 UV-I 344 W/m 13,9 C 15,4 C 0,0 km/h (0 Bft) 0,00 %
09.06.2015 10:00 15,3 C 88 % 1018,9 hPa 0,0 l/m 1,8 km/h (1 Bft) W 270 0 min 0,000 mm 2,0 UV-I 324 W/m 13,3 C 15,3 C 4,0 km/h (1 Bft) 0,00 %
09.06.2015 11:00 15,0 C 82 % 1019,2 hPa 0,0 l/m 0,0 km/h (0 Bft) S-SW 210 0 min 0,000 mm 1,0 UV-I 202 W/m 12,0 C 15,0 C 0,0 km/h (0 Bft) 0,00 %
09.06.2015 12:00 16,7 C 71 % 1019,0 hPa 0,0 l/m 0,0 km/h (0 Bft) S-SW 200 0 min 0,000 mm 1,0 UV-I 193 W/m 11,4 C 16,7 C 0,0 km/h (0 Bft) 0,00 %
09.06.2015 13:00 17,6 C 67 % 1019,2 hPa 0,0 l/m 0,3 km/h (0 Bft) SW 220 0 min 0,000 mm 3,0 UV-I 472 W/m 11,4 C 17,6 C 4,0 km/h (1 Bft) 0,00 %
09.06.2015 14:00 17,4 C 68 % 1018,8 hPa 0,0 l/m 5,5 km/h (1 Bft) W 270 0 min 0,000 mm 2,0 UV-I 385 W/m 11,4 C 17,4 C 7,9 km/h (2 Bft) 0,00 %
09.06.2015 15:00 18,3 C 72 % 1018,7 hPa 0,0 l/m 3,2 km/h (1 Bft) W-NW 290 0 min 0,000 mm 2,0 UV-I 379 W/m 13,2 C 18,3 C 4,0 km/h (1 Bft) 0,00 %
09.06.2015 16:00 15,1 C 80 % 1019,6 hPa 0,0 l/m 0,0 km/h (0 Bft) NW 320 0 min 0,000 mm 2,0 UV-I 310 W/m 11,7 C 15,1 C 0,0 km/h (0 Bft) 0,00 %
09.06.2015 17:00 15,4 C 77 % 1019,2 hPa 0,0 l/m 0,0 km/h (0 Bft) SO 130 0 min 0,000 mm 1,0 UV-I 129 W/m 11,4 C 15,4 C 0,0 km/h (0 Bft) 0,00 %
09.06.2015 18:00 15,0 C 81 % 1019,2 hPa 0,0 l/m 2,1 km/h (1 Bft) NW 320 60 min 0,000 mm 2,0 UV-I 252 W/m 11,8 C 15,0 C 4,0 km/h (1 Bft) 0,00 %
09.06.2015 19:00 14,5 C 81 % 1020,0 hPa 0,0 l/m 0,0 km/h (0 Bft) N 359 60 min 0,000 mm 1,0 UV-I 162 W/m 11,3 C 14,5 C 0,0 km/h (0 Bft) 0,00 %
09.06.2015 20:00 13,9 C 81 % 1020,8 hPa 0,0 l/m 1,8 km/h (1 Bft) N-NO 30 0 min 0,000 mm 0,0 UV-I 43 W/m 10,7 C 13,9 C 4,0 km/h (1 Bft) 0,00 %
09.06.2015 21:00 13,6 C 85 % 1020,5 hPa 0,0 l/m 0,0 km/h (0 Bft) O 90 0 min 0,000 mm 0,0 UV-I 5 W/m 11,1 C 13,6 C 0,0 km/h (0 Bft) 0,00 %
09.06.2015 22:00 13,3 C 82 % 1021,3 hPa 0,0 l/m 0,0 km/h (0 Bft) N-NO 30 0 min 0,000 mm 0,0 UV-I 0 W/m 10,3 C 13,3 C 0,0 km/h (0 Bft) 0,00 %
09.06.2015 23:00 13,2 C 82 % 1021,3 hPa 0,0 l/m 0,0 km/h (0 Bft) S-SO 150 0 min 0,000 mm 0,0 UV-I 0 W/m 10,2 C 13,2 C 0,0 km/h (0 Bft) 0,00 %
_ Min-Zeit 23:00 13:00 04:00 - 00:00 - - - - - - 23:00 23:00 00:00 00:00
Minimum _ 13,2 C 67 % 1016,8 hPa - 0,0 km/h (0 Bft) - - - - - - 10,2 C 13,2 C 0,0 km/h (0 Bft) 0,00 %
_ Max-Zeit 15:00 01:00 22:00 05:00 14:00 - - 09:00 00:00 13:00 13:00 02:00 15:00 14:00 00:00
Maximum _ 18,3 C 99 % 1021,3 hPa 0,9 l/m 5,5 km/h
W (1 Bft)
- - 60 min 0,000 mm 3,0 UV-I 472 W/m 14,2 C 18,3 C 7,9 km/h
W (2 Bft)
0,00 %
Durchschnitt _ 14,9 C 86 % 1018,9 hPa #0,9 l/m 0,7 km/h (0 Bft) W - #3:00 h #0,000 mm 1,6 UV-I 228 W/m 12,5 C 14,9 C 1,4 km/h (1 Bft) 0,00 %